Private Wetterstation Sandau
Wetterdaten: Dienstag, 26.06.2012
Datum Zeit Temp. A. Feuchte A. Luftdruck Regen Wind Richtung Richtung Taupunkt Windchill
26.06.2012 00:01 13,8 C 78 % 1013,3 hPa 0,0 l/m 16,6 km/h (3 Bft) N-NW 337 10,0 C 13,8 C
26.06.2012 00:06 13,8 C 78 % 1013,5 hPa 0,0 l/m 22,3 km/h (4 Bft) W-NW 292 10,0 C 13,8 C
26.06.2012 00:11 13,8 C 78 % 1013,6 hPa 0,0 l/m 14,0 km/h (3 Bft) W 270 10,0 C 13,8 C
26.06.2012 00:16 13,8 C 78 % 1013,4 hPa 0,0 l/m 20,2 km/h (4 Bft) W 270 10,0 C 13,8 C
26.06.2012 00:21 13,8 C 78 % 1013,7 hPa 0,0 l/m 25,2 km/h (4 Bft) W-NW 292 10,0 C 13,8 C
26.06.2012 00:26 13,8 C 77 % 1013,7 hPa 0,0 l/m 14,8 km/h (3 Bft) W-NW 292 9,8 C 13,8 C
26.06.2012 00:31 13,8 C 77 % 1013,6 hPa 0,0 l/m 15,8 km/h (3 Bft) W 270 9,8 C 13,8 C
26.06.2012 00:36 13,8 C 77 % 1013,7 hPa 0,0 l/m 20,5 km/h (4 Bft) NW 315 9,8 C 13,8 C
26.06.2012 00:41 13,8 C 77 % 1013,8 hPa 0,0 l/m 20,9 km/h (4 Bft) W 270 9,8 C 13,8 C
26.06.2012 00:46 13,9 C 77 % 1013,8 hPa 0,0 l/m 16,6 km/h (3 Bft) NW 315 9,9 C 13,9 C
26.06.2012 00:51 13,9 C 77 % 1013,8 hPa 0,0 l/m 16,2 km/h (3 Bft) W-NW 292 9,9 C 13,9 C
26.06.2012 00:56 13,9 C 77 % 1013,8 hPa 0,0 l/m 23,0 km/h (4 Bft) W-NW 292 9,9 C 13,9 C
26.06.2012 01:01 13,9 C 77 % 1013,9 hPa 0,0 l/m 18,7 km/h (3 Bft) W 270 9,9 C 13,9 C
26.06.2012 01:06 13,9 C 77 % 1013,9 hPa 0,0 l/m 21,2 km/h (4 Bft) W 270 9,9 C 13,9 C
26.06.2012 01:11 13,9 C 77 % 1013,7 hPa 0,0 l/m 15,5 km/h (3 Bft) W-NW 292 9,9 C 13,9 C
26.06.2012 01:16 13,9 C 77 % 1013,8 hPa 0,0 l/m 25,2 km/h (4 Bft) W 270 9,9 C 13,9 C
26.06.2012 01:21 13,9 C 78 % 1013,9 hPa 0,0 l/m 21,6 km/h (4 Bft) SW 225 10,1 C 13,9 C
26.06.2012 01:26 13,8 C 78 % 1013,9 hPa 0,0 l/m 20,9 km/h (4 Bft) W 270 10,0 C 13,8 C
26.06.2012 01:31 13,8 C 78 % 1013,9 hPa 0,0 l/m 10,1 km/h (2 Bft) W-NW 292 10,0 C 13,8 C
26.06.2012 01:36 13,8 C 78 % 1013,9 hPa 0,0 l/m 10,8 km/h (2 Bft) W-NW 292 10,0 C 13,8 C
26.06.2012 01:41 13,7 C 78 % 1013,6 hPa 0,0 l/m 23,0 km/h (4 Bft) W-NW 292 9,9 C 13,7 C
26.06.2012 01:46 13,7 C 78 % 1013,7 hPa 0,0 l/m 19,1 km/h (3 Bft) W-NW 292 9,9 C 13,7 C
26.06.2012 01:51 13,8 C 78 % 1013,7 hPa 0,0 l/m 15,8 km/h (3 Bft) NW 315 10,0 C 13,8 C
26.06.2012 01:56 13,8 C 78 % 1013,8 hPa 0,0 l/m 19,4 km/h (3 Bft) W-NW 292 10,0 C 13,8 C
26.06.2012 02:01 13,8 C 77 % 1013,8 hPa 0,0 l/m 13,0 km/h (3 Bft) W-NW 292 9,8 C 13,8 C
26.06.2012 02:06 13,8 C 77 % 1013,9 hPa 0,0 l/m 9,4 km/h (2 Bft) W 270 9,8 C 13,8 C
26.06.2012 02:11 13,8 C 77 % 1013,8 hPa 0,0 l/m 19,1 km/h (3 Bft) W 270 9,8 C 13,8 C
26.06.2012 02:16 13,8 C 77 % 1013,9 hPa 0,0 l/m 26,3 km/h (4 Bft) W-NW 292 9,8 C 13,8 C
26.06.2012 02:21 13,8 C 76 % 1013,9 hPa 0,0 l/m 9,7 km/h (2 Bft) W-NW 292 9,6 C 13,8 C
26.06.2012 02:26 13,8 C 76 % 1014,0 hPa 0,0 l/m 16,9 km/h (3 Bft) W-NW 292 9,6 C 13,8 C
26.06.2012 02:31 13,8 C 76 % 1014,0 hPa 0,0 l/m 19,1 km/h (3 Bft) W 270 9,6 C 13,8 C
26.06.2012 02:36 13,8 C 76 % 1014,0 hPa 0,0 l/m 8,6 km/h (2 Bft) W-NW 292 9,6 C 13,8 C
26.06.2012 02:41 13,8 C 76 % 1014,0 hPa 0,0 l/m 12,2 km/h (2 Bft) W-NW 292 9,6 C 13,8 C
26.06.2012 02:46 13,8 C 76 % 1014,0 hPa 0,0 l/m 11,9 km/h (2 Bft) W-NW 292 9,6 C 13,8 C
26.06.2012 02:51 13,8 C 76 % 1013,8 hPa 0,0 l/m 17,3 km/h (3 Bft) NW 315 9,6 C 13,8 C
26.06.2012 02:56 13,8 C 76 % 1013,9 hPa 0,0 l/m 6,1 km/h (2 Bft) NW 315 9,6 C 13,8 C
26.06.2012 03:01 13,8 C 76 % 1013,9 hPa 0,0 l/m 10,8 km/h (2 Bft) W 270 9,6 C 13,8 C
26.06.2012 03:06 13,8 C 76 % 1013,9 hPa 0,0 l/m 9,7 km/h (2 Bft) W 270 9,6 C 13,8 C
26.06.2012 03:11 13,7 C 76 % 1013,9 hPa 0,0 l/m 7,6 km/h (2 Bft) W-SW 247 9,5 C 13,7 C
26.06.2012 03:16 13,7 C 76 % 1014,0 hPa 0,0 l/m 16,9 km/h (3 Bft) W-NW 292 9,5 C 13,7 C
26.06.2012 03:21 13,6 C 76 % 1014,0 hPa 0,0 l/m 9,7 km/h (2 Bft) SW 225 9,4 C 13,6 C
26.06.2012 03:26 13,6 C 76 % 1014,2 hPa 0,0 l/m 19,1 km/h (3 Bft) NW 315 9,4 C 13,6 C
26.06.2012 03:31 13,6 C 76 % 1014,2 hPa 0,0 l/m 13,7 km/h (3 Bft) W 270 9,4 C 13,6 C
26.06.2012 03:36 13,6 C 76 % 1014,2 hPa 0,0 l/m 7,2 km/h (2 Bft) S-SW 202 9,4 C 13,6 C
26.06.2012 03:41 13,6 C 76 % 1014,2 hPa 0,0 l/m 12,6 km/h (3 Bft) W-NW 292 9,4 C 13,6 C
26.06.2012 03:46 13,6 C 76 % 1014,3 hPa 0,0 l/m 13,0 km/h (3 Bft) NW 315 9,4 C 13,6 C
26.06.2012 03:51 13,5 C 77 % 1014,3 hPa 0,0 l/m 10,1 km/h (2 Bft) W-NW 292 9,5 C 13,5 C
26.06.2012 03:56 13,5 C 77 % 1014,5 hPa 0,0 l/m 10,8 km/h (2 Bft) W-NW 292 9,5 C 13,5 C
26.06.2012 04:01 13,5 C 77 % 1014,5 hPa 0,0 l/m 10,4 km/h (2 Bft) W 270 9,5 C 13,5 C
26.06.2012 04:06 13,5 C 77 % 1014,5 hPa 0,0 l/m 14,8 km/h (3 Bft) NW 315 9,5 C 13,5 C
26.06.2012 04:11 13,5 C 77 % 1014,7 hPa 0,0 l/m 11,2 km/h (2 Bft) SW 225 9,5 C 13,5 C
26.06.2012 04:16 13,5 C 77 % 1014,7 hPa 0,0 l/m 9,7 km/h (2 Bft) NW 315 9,5 C 13,5 C
26.06.2012 04:21 13,5 C 77 % 1014,7 hPa 0,0 l/m 14,4 km/h (3 Bft) W 270 9,5 C 13,5 C
26.06.2012 04:26 13,5 C 76 % 1014,7 hPa 0,0 l/m 15,5 km/h (3 Bft) W-NW 292 9,4 C 13,5 C
26.06.2012 04:31 13,5 C 76 % 1014,7 hPa 0,0 l/m 22,3 km/h (4 Bft) W-NW 292 9,4 C 13,5 C
26.06.2012 04:36 13,5 C 76 % 1014,6 hPa 0,0 l/m 17,3 km/h (3 Bft) NW 315 9,4 C 13,5 C
26.06.2012 04:41 13,5 C 76 % 1014,6 hPa 0,0 l/m 12,2 km/h (2 Bft) W-NW 292 9,4 C 13,5 C
26.06.2012 04:46 13,5 C 76 % 1014,8 hPa 0,0 l/m 16,9 km/h (3 Bft) W-NW 292 9,4 C 13,5 C
26.06.2012 04:51 13,4 C 77 % 1014,8 hPa 0,0 l/m 23,0 km/h (4 Bft) W 270 9,5 C 13,4 C
26.06.2012 04:56 13,4 C 77 % 1014,9 hPa 0,0 l/m 12,6 km/h (3 Bft) W 270 9,5 C 13,4 C
26.06.2012 05:01 13,4 C 77 % 1014,9 hPa 0,0 l/m 15,8 km/h (3 Bft) W-NW 292 9,5 C 13,4 C
26.06.2012 05:06 13,4 C 77 % 1015,0 hPa 0,0 l/m 20,9 km/h (4 Bft) W-SW 247 9,5 C 13,4 C
26.06.2012 05:11 13,4 C 77 % 1015,1 hPa 0,0 l/m 20,9 km/h (4 Bft) W-NW 292 9,5 C 13,4 C
26.06.2012 05:16 13,4 C 77 % 1015,1 hPa 0,0 l/m 11,5 km/h (2 Bft) SW 225 9,5 C 13,4 C
26.06.2012 05:21 13,4 C 76 % 1015,3 hPa 0,0 l/m 18,0 km/h (3 Bft) W-NW 292 9,3 C 13,4 C
26.06.2012 05:26 13,4 C 76 % 1015,3 hPa 0,0 l/m 18,4 km/h (3 Bft) NW 315 9,3 C 13,4 C
26.06.2012 05:31 13,4 C 75 % 1015,3 hPa 0,0 l/m 28,1 km/h (4 Bft) W 270 9,1 C 13,4 C
26.06.2012 05:36 13,4 C 75 % 1015,5 hPa 0,0 l/m 24,5 km/h (4 Bft) SW 225 9,1 C 13,4 C
26.06.2012 05:41 13,4 C 75 % 1015,5 hPa 0,0 l/m 14,8 km/h (3 Bft) W 270 9,1 C 13,4 C
26.06.2012 05:46 13,4 C 75 % 1015,7 hPa 0,0 l/m 13,3 km/h (3 Bft) W-NW 292 9,1 C 13,4 C
26.06.2012 05:51 13,4 C 75 % 1015,7 hPa 0,0 l/m 9,4 km/h (2 Bft) S-SW 202 9,1 C 13,4 C
26.06.2012 05:56 13,4 C 75 % 1015,6 hPa 0,0 l/m 19,1 km/h (3 Bft) W 270 9,1 C 13,4 C
26.06.2012 06:01 13,4 C 75 % 1015,7 hPa 0,0 l/m 12,2 km/h (2 Bft) W 270 9,1 C 13,4 C
26.06.2012 06:06 13,4 C 75 % 1015,8 hPa 0,0 l/m 7,2 km/h (2 Bft) W-SW 247 9,1 C 13,4 C
26.06.2012 06:11 13,4 C 75 % 1015,8 hPa 0,0 l/m 21,2 km/h (4 Bft) W-NW 292 9,1 C 13,4 C
26.06.2012 06:16 13,4 C 75 % 1015,8 hPa 0,0 l/m 12,2 km/h (2 Bft) W-NW 292 9,1 C 13,4 C
26.06.2012 06:21 13,3 C 75 % 1015,8 hPa 0,0 l/m 12,6 km/h (3 Bft) W-NW 292 9,0 C 13,3 C
26.06.2012 06:26 13,3 C 75 % 1016,0 hPa 0,0 l/m 16,6 km/h (3 Bft) W-NW 292 9,0 C 13,3 C
26.06.2012 06:31 13,3 C 75 % 1015,9 hPa 0,0 l/m 7,6 km/h (2 Bft) SW 225 9,0 C 13,3 C
26.06.2012 06:36 13,3 C 75 % 1015,9 hPa 0,0 l/m 14,8 km/h (3 Bft) NW 315 9,0 C 13,3 C
26.06.2012 06:41 13,3 C 75 % 1016,1 hPa 0,0 l/m 7,6 km/h (2 Bft) W-NW 292 9,0 C 13,3 C
26.06.2012 06:46 13,3 C 75 % 1016,0 hPa 0,0 l/m 12,6 km/h (3 Bft) W 270 9,0 C 13,3 C
26.06.2012 06:51 13,3 C 75 % 1016,2 hPa 0,0 l/m 21,6 km/h (4 Bft) W 270 9,0 C 13,3 C
26.06.2012 06:56 13,3 C 75 % 1016,2 hPa 0,0 l/m 22,7 km/h (4 Bft) W-NW 292 9,0 C 13,3 C
26.06.2012 07:01 13,3 C 75 % 1016,1 hPa 0,0 l/m 15,1 km/h (3 Bft) W 270 9,0 C 13,3 C
26.06.2012 07:06 13,3 C 75 % 1016,3 hPa 0,0 l/m 6,8 km/h (2 Bft) W 270 9,0 C 13,3 C
26.06.2012 07:11 13,3 C 75 % 1016,3 hPa 0,0 l/m 10,1 km/h (2 Bft) W 270 9,0 C 13,3 C
26.06.2012 07:16 13,4 C 75 % 1016,4 hPa 0,0 l/m 6,5 km/h (2 Bft) W 270 9,1 C 13,4 C
26.06.2012 07:21 13,4 C 75 % 1016,5 hPa 0,0 l/m 6,1 km/h (2 Bft) W-SW 247 9,1 C 13,4 C
26.06.2012 07:26 13,4 C 75 % 1016,5 hPa 0,0 l/m 7,2 km/h (2 Bft) W-NW 292 9,1 C 13,4 C
26.06.2012 07:31 13,4 C 75 % 1016,4 hPa 0,0 l/m 12,2 km/h (2 Bft) W-SW 247 9,1 C 13,4 C
26.06.2012 07:36 13,4 C 75 % 1016,4 hPa 0,0 l/m 6,8 km/h (2 Bft) S-SW 202 9,1 C 13,4 C
26.06.2012 07:41 13,4 C 75 % 1016,5 hPa 0,0 l/m 20,5 km/h (4 Bft) W-NW 292 9,1 C 13,4 C
26.06.2012 07:46 13,4 C 75 % 1016,5 hPa 0,0 l/m 12,6 km/h (3 Bft) W 270 9,1 C 13,4 C
26.06.2012 07:51 13,4 C 75 % 1016,4 hPa 0,0 l/m 5,0 km/h (1 Bft) W-NW 292 9,1 C 13,4 C
26.06.2012 07:56 13,5 C 75 % 1016,5 hPa 0,0 l/m 10,1 km/h (2 Bft) W 270 9,2 C 13,5 C
26.06.2012 08:01 13,6 C 75 % 1016,7 hPa 0,0 l/m 7,6 km/h (2 Bft) W-NW 292 9,3 C 13,6 C
26.06.2012 08:06 13,6 C 75 % 1016,7 hPa 0,0 l/m 17,3 km/h (3 Bft) W 270 9,3 C 13,6 C
26.06.2012 08:11 13,6 C 74 % 1016,7 hPa 0,0 l/m 8,3 km/h (2 Bft) NW 315 9,1 C 13,6 C
26.06.2012 08:16 13,6 C 74 % 1016,8 hPa 0,0 l/m 16,2 km/h (3 Bft) W 270 9,1 C 13,6 C
26.06.2012 08:21 13,6 C 74 % 1016,9 hPa 0,0 l/m 17,6 km/h (3 Bft) W-SW 247 9,1 C 13,6 C
26.06.2012 08:26 13,6 C 74 % 1016,9 hPa 0,0 l/m 20,9 km/h (4 Bft) W-NW 292 9,1 C 13,6 C
26.06.2012 08:31 13,6 C 74 % 1016,9 hPa 0,0 l/m 24,1 km/h (4 Bft) W 270 9,1 C 13,6 C
26.06.2012 08:36 13,6 C 74 % 1017,0 hPa 0,0 l/m 9,4 km/h (2 Bft) W 270 9,1 C 13,6 C
26.06.2012 08:41 13,6 C 74 % 1017,1 hPa 0,0 l/m 9,0 km/h (2 Bft) W 270 9,1 C 13,6 C
26.06.2012 08:46 13,6 C 73 % 1017,1 hPa 0,0 l/m 7,6 km/h (2 Bft) W 270 8,9 C 13,6 C
26.06.2012 08:51 13,7 C 74 % 1017,2 hPa 0,0 l/m 5,8 km/h (2 Bft) W 270 9,2 C 13,7 C
26.06.2012 08:56 13,8 C 73 % 1017,2 hPa 0,0 l/m 12,6 km/h (3 Bft) W 270 9,0 C 13,8 C
26.06.2012 09:01 13,8 C 73 % 1017,1 hPa 0,0 l/m 7,6 km/h (2 Bft) W-NW 292 9,0 C 13,8 C
26.06.2012 09:06 13,8 C 73 % 1017,2 hPa 0,0 l/m 12,2 km/h (2 Bft) W-NW 292 9,0 C 13,8 C
26.06.2012 09:11 13,8 C 73 % 1017,4 hPa 0,0 l/m 11,9 km/h (2 Bft) W-SW 247 9,0 C 13,8 C
26.06.2012 09:16 13,8 C 73 % 1017,3 hPa 0,0 l/m 20,5 km/h (4 Bft) NW 315 9,0 C 13,8 C
26.06.2012 09:21 13,8 C 73 % 1017,4 hPa 0,0 l/m 15,1 km/h (3 Bft) NW 315 9,0 C 13,8 C
26.06.2012 09:26 13,8 C 73 % 1017,4 hPa 0,0 l/m 15,5 km/h (3 Bft) NW 315 9,0 C 13,8 C
26.06.2012 09:31 13,8 C 74 % 1017,4 hPa 0,0 l/m 14,8 km/h (3 Bft) W-SW 247 9,2 C 13,8 C
26.06.2012 09:36 13,9 C 74 % 1017,3 hPa 0,0 l/m 10,8 km/h (2 Bft) SW 225 9,3 C 13,9 C
26.06.2012 09:41 13,9 C 74 % 1017,3 hPa 0,0 l/m 6,5 km/h (2 Bft) W 270 9,3 C 13,9 C
26.06.2012 09:46 13,9 C 75 % 1017,3 hPa 0,0 l/m 10,4 km/h (2 Bft) NW 315 9,5 C 13,9 C
26.06.2012 09:51 13,9 C 75 % 1017,3 hPa 0,0 l/m 12,6 km/h (3 Bft) W 270 9,5 C 13,9 C
26.06.2012 09:56 13,9 C 74 % 1017,5 hPa 0,0 l/m 15,5 km/h (3 Bft) W-SW 247 9,3 C 13,9 C
26.06.2012 10:01 13,9 C 74 % 1017,4 hPa 0,0 l/m 10,4 km/h (2 Bft) NW 315 9,3 C 13,9 C
26.06.2012 10:06 14,0 C 74 % 1017,4 hPa 0,0 l/m 21,6 km/h (4 Bft) W-NW 292 9,4 C 14,0 C
26.06.2012 10:11 14,1 C 74 % 1017,4 hPa 0,0 l/m 11,9 km/h (2 Bft) W-NW 292 9,5 C 14,1 C
26.06.2012 10:16 14,1 C 73 % 1017,5 hPa 0,0 l/m 21,2 km/h (4 Bft) W 270 9,3 C 14,1 C
26.06.2012 10:21 14,3 C 73 % 1017,4 hPa 0,0 l/m 16,6 km/h (3 Bft) NW 315 9,5 C 14,3 C
26.06.2012 10:26 14,3 C 73 % 1017,5 hPa 0,0 l/m 19,8 km/h (3 Bft) NW 315 9,5 C 14,3 C
26.06.2012 10:31 14,5 C 73 % 1017,5 hPa 0,0 l/m 4,7 km/h (1 Bft) W 270 9,7 C 14,5 C
26.06.2012 10:36 14,5 C 73 % 1017,5 hPa 0,0 l/m 4,7 km/h (1 Bft) NW 315 9,7 C 14,5 C
26.06.2012 10:41 14,6 C 73 % 1017,5 hPa 0,0 l/m 8,6 km/h (2 Bft) W-NW 292 9,8 C 14,6 C
26.06.2012 10:46 14,6 C 73 % 1017,5 hPa 0,0 l/m 12,2 km/h (2 Bft) W 270 9,8 C 14,6 C
26.06.2012 10:51 14,7 C 73 % 1017,7 hPa 0,0 l/m 17,3 km/h (3 Bft) W-NW 292 9,9 C 14,7 C
26.06.2012 10:56 14,9 C 73 % 1017,6 hPa 0,0 l/m 19,4 km/h (3 Bft) W-NW 292 10,1 C 14,9 C
26.06.2012 11:01 14,9 C 72 % 1017,7 hPa 0,0 l/m 13,7 km/h (3 Bft) W-NW 292 9,9 C 14,9 C
26.06.2012 11:06 14,9 C 72 % 1017,7 hPa 0,0 l/m 14,4 km/h (3 Bft) W 270 9,9 C 14,9 C
26.06.2012 11:11 14,9 C 72 % 1017,8 hPa 0,0 l/m 14,4 km/h (3 Bft) W 270 9,9 C 14,9 C
26.06.2012 11:16 14,9 C 73 % 1017,8 hPa 0,0 l/m 9,0 km/h (2 Bft) W-NW 292 10,1 C 14,9 C
26.06.2012 11:21 14,9 C 72 % 1017,9 hPa 0,0 l/m 19,4 km/h (3 Bft) NW 315 9,9 C 14,9 C
26.06.2012 11:26 14,9 C 72 % 1017,8 hPa 0,0 l/m 9,0 km/h (2 Bft) NW 315 9,9 C 14,9 C
26.06.2012 11:31 14,8 C 73 % 1017,9 hPa 0,0 l/m 13,7 km/h (3 Bft) W-NW 292 10,0 C 14,8 C
26.06.2012 11:36 14,8 C 73 % 1017,9 hPa 0,0 l/m 11,5 km/h (2 Bft) W-NW 292 10,0 C 14,8 C
26.06.2012 11:41 14,6 C 74 % 1018,0 hPa 0,0 l/m 9,7 km/h (2 Bft) NW 315 10,0 C 14,6 C
26.06.2012 11:46 14,6 C 74 % 1018,1 hPa 0,0 l/m 6,1 km/h (2 Bft) W 270 10,0 C 14,6 C
26.06.2012 11:51 14,5 C 74 % 1018,1 hPa 0,0 l/m 14,8 km/h (3 Bft) W 270 9,9 C 14,5 C
26.06.2012 11:56 14,6 C 74 % 1018,2 hPa 0,0 l/m 33,5 km/h (5 Bft) W-NW 292 10,0 C 14,6 C
26.06.2012 12:01 14,8 C 74 % 1018,1 hPa 0,0 l/m 17,6 km/h (3 Bft) W-NW 292 10,2 C 14,8 C
26.06.2012 12:06 14,9 C 74 % 1018,1 hPa 0,0 l/m 23,8 km/h (4 Bft) W-NW 292 10,3 C 14,9 C
26.06.2012 12:11 15,4 C 72 % 1018,1 hPa 0,0 l/m 16,9 km/h (3 Bft) W 270 10,4 C 15,4 C
26.06.2012 12:16 15,5 C 71 % 1018,2 hPa 0,0 l/m 27,0 km/h (4 Bft) W-NW 292 10,3 C 15,5 C
26.06.2012 12:21 15,8 C 71 % 1018,2 hPa 0,0 l/m 27,4 km/h (4 Bft) W-NW 292 10,6 C 15,8 C
26.06.2012 12:26 16,1 C 70 % 1018,2 hPa 0,0 l/m 27,0 km/h (4 Bft) W 270 10,6 C 16,1 C
26.06.2012 12:31 16,3 C 69 % 1018,1 hPa 0,0 l/m 11,9 km/h (2 Bft) W-SW 247 10,6 C 16,3 C
26.06.2012 12:36 16,5 C 68 % 1018,2 hPa 0,0 l/m 20,5 km/h (4 Bft) NW 315 10,6 C 16,5 C
26.06.2012 12:41 16,5 C 67 % 1018,2 hPa 0,0 l/m 16,6 km/h (3 Bft) W-NW 292 10,4 C 16,5 C
26.06.2012 12:46 16,4 C 68 % 1018,2 hPa 0,0 l/m 16,2 km/h (3 Bft) W 270 10,5 C 16,4 C
26.06.2012 12:51 16,4 C 68 % 1018,4 hPa 0,0 l/m 18,4 km/h (3 Bft) NW 315 10,5 C 16,4 C
26.06.2012 12:56 16,2 C 68 % 1018,3 hPa 0,0 l/m 15,1 km/h (3 Bft) W-NW 292 10,3 C 16,2 C
26.06.2012 13:01 16,4 C 68 % 1018,3 hPa 0,0 l/m 16,6 km/h (3 Bft) W-NW 292 10,5 C 16,4 C
26.06.2012 13:06 16,5 C 68 % 1018,4 hPa 0,0 l/m 22,3 km/h (4 Bft) N-NW 337 10,6 C 16,5 C
26.06.2012 13:11 16,6 C 67 % 1018,4 hPa 0,0 l/m 20,9 km/h (4 Bft) W 270 10,4 C 16,6 C
26.06.2012 13:16 16,6 C 66 % 1018,4 hPa 0,0 l/m 11,5 km/h (2 Bft) W-SW 247 10,2 C 16,6 C
26.06.2012 13:21 16,4 C 66 % 1018,5 hPa 0,0 l/m 10,8 km/h (2 Bft) W 270 10,0 C 16,4 C
26.06.2012 13:26 16,3 C 66 % 1018,5 hPa 0,0 l/m 19,8 km/h (3 Bft) W-NW 292 9,9 C 16,3 C
26.06.2012 13:31 16,2 C 67 % 1018,4 hPa 0,0 l/m 22,7 km/h (4 Bft) W-NW 292 10,1 C 16,2 C
26.06.2012 13:36 16,1 C 67 % 1018,6 hPa 0,0 l/m 14,0 km/h (3 Bft) W-NW 292 10,0 C 16,1 C
26.06.2012 13:41 16,1 C 66 % 1018,7 hPa 0,0 l/m 13,7 km/h (3 Bft) W 270 9,7 C 16,1 C
26.06.2012 13:46 16,1 C 66 % 1018,7 hPa 0,0 l/m 11,9 km/h (2 Bft) W 270 9,7 C 16,1 C
26.06.2012 13:51 16,1 C 66 % 1018,6 hPa 0,0 l/m 23,0 km/h (4 Bft) W 270 9,7 C 16,1 C
26.06.2012 13:56 15,9 C 66 % 1018,8 hPa 0,0 l/m 21,6 km/h (4 Bft) W-NW 292 9,6 C 15,9 C
26.06.2012 14:01 15,9 C 66 % 1018,8 hPa 0,0 l/m 18,7 km/h (3 Bft) W-NW 292 9,6 C 15,9 C
26.06.2012 14:06 16,0 C 66 % 1018,9 hPa 0,0 l/m 13,7 km/h (3 Bft) W-NW 292 9,7 C 16,0 C
26.06.2012 14:11 16,0 C 66 % 1018,8 hPa 0,0 l/m 11,2 km/h (2 Bft) W-NW 292 9,7 C 16,0 C
26.06.2012 14:16 16,1 C 66 % 1018,9 hPa 0,0 l/m 16,6 km/h (3 Bft) W-NW 292 9,7 C 16,1 C
26.06.2012 14:21 15,9 C 66 % 1018,9 hPa 0,0 l/m 5,8 km/h (2 Bft) W-SW 247 9,6 C 15,9 C
26.06.2012 14:26 15,9 C 66 % 1019,0 hPa 0,0 l/m 20,5 km/h (4 Bft) W 270 9,6 C 15,9 C
26.06.2012 14:31 15,9 C 66 % 1019,1 hPa 0,0 l/m 27,0 km/h (4 Bft) W 270 9,6 C 15,9 C
26.06.2012 14:36 16,1 C 66 % 1019,2 hPa 0,0 l/m 21,6 km/h (4 Bft) W-NW 292 9,7 C 16,1 C
26.06.2012 14:41 16,2 C 66 % 1018,9 hPa 0,0 l/m 16,2 km/h (3 Bft) W-NW 292 9,8 C 16,2 C
26.06.2012 14:46 16,3 C 66 % 1019,1 hPa 0,0 l/m 14,4 km/h (3 Bft) W-NW 292 9,9 C 16,3 C
26.06.2012 14:51 16,4 C 66 % 1019,1 hPa 0,0 l/m 23,0 km/h (4 Bft) W 270 10,0 C 16,4 C
26.06.2012 14:56 16,4 C 65 % 1019,2 hPa 0,0 l/m 24,5 km/h (4 Bft) W 270 9,8 C 16,4 C
26.06.2012 15:01 16,4 C 65 % 1019,1 hPa 0,0 l/m 18,0 km/h (3 Bft) W 270 9,8 C 16,4 C
26.06.2012 15:06 16,4 C 65 % 1019,1 hPa 0,0 l/m 14,8 km/h (3 Bft) W 270 9,8 C 16,4 C
26.06.2012 15:11 16,3 C 65 % 1019,2 hPa 0,0 l/m 15,5 km/h (3 Bft) NW 315 9,7 C 16,3 C
26.06.2012 15:16 16,2 C 65 % 1019,3 hPa 0,0 l/m 16,6 km/h (3 Bft) W 270 9,6 C 16,2 C
26.06.2012 15:21 16,2 C 66 % 1019,3 hPa 0,0 l/m 16,6 km/h (3 Bft) W-NW 292 9,8 C 16,2 C
26.06.2012 15:26 16,2 C 66 % 1019,3 hPa 0,0 l/m 10,4 km/h (2 Bft) NW 315 9,8 C 16,2 C
26.06.2012 15:31 16,2 C 66 % 1019,2 hPa 0,0 l/m 6,8 km/h (2 Bft) W-SW 247 9,8 C 16,2 C
26.06.2012 15:36 16,3 C 66 % 1019,3 hPa 0,0 l/m 21,2 km/h (4 Bft) W-SW 247 9,9 C 16,3 C
26.06.2012 15:41 16,3 C 66 % 1019,2 hPa 0,0 l/m 18,4 km/h (3 Bft) W-NW 292 9,9 C 16,3 C
26.06.2012 15:46 16,2 C 65 % 1019,3 hPa 0,0 l/m 20,9 km/h (4 Bft) W-NW 292 9,6 C 16,2 C
26.06.2012 15:51 16,3 C 65 % 1019,2 hPa 0,0 l/m 11,9 km/h (2 Bft) NW 315 9,7 C 16,3 C
26.06.2012 15:56 16,2 C 65 % 1019,2 hPa 0,0 l/m 19,8 km/h (3 Bft) NW 315 9,6 C 16,2 C
26.06.2012 16:01 16,4 C 66 % 1019,3 hPa 0,0 l/m 14,0 km/h (3 Bft) W-NW 292 10,0 C 16,4 C
26.06.2012 16:06 16,5 C 65 % 1019,3 hPa 0,0 l/m 14,4 km/h (3 Bft) W 270 9,9 C 16,5 C
26.06.2012 16:11 16,5 C 65 % 1019,4 hPa 0,0 l/m 18,7 km/h (3 Bft) W-NW 292 9,9 C 16,5 C
26.06.2012 16:16 16,7 C 65 % 1019,3 hPa 0,0 l/m 5,0 km/h (1 Bft) W-SW 247 10,1 C 16,7 C
26.06.2012 16:21 16,9 C 65 % 1019,2 hPa 0,0 l/m 13,0 km/h (3 Bft) W-NW 292 10,3 C 16,9 C
26.06.2012 16:26 17,1 C 64 % 1019,2 hPa 0,0 l/m 4,3 km/h (1 Bft) W 270 10,2 C 17,1 C
26.06.2012 16:31 16,9 C 63 % 1019,3 hPa 0,0 l/m 11,2 km/h (2 Bft) W-SW 247 9,8 C 16,9 C
26.06.2012 16:36 16,8 C 64 % 1019,3 hPa 0,0 l/m 13,0 km/h (3 Bft) W-NW 292 10,0 C 16,8 C
26.06.2012 16:41 16,8 C 64 % 1019,5 hPa 0,0 l/m 6,1 km/h (2 Bft) SW 225 10,0 C 16,8 C
26.06.2012 16:46 16,8 C 64 % 1019,3 hPa 0,0 l/m 10,1 km/h (2 Bft) W 270 10,0 C 16,8 C
26.06.2012 16:51 16,8 C 63 % 1019,3 hPa 0,0 l/m 12,2 km/h (2 Bft) W-SW 247 9,7 C 16,8 C
26.06.2012 16:56 16,7 C 64 % 1019,3 hPa 0,0 l/m 9,4 km/h (2 Bft) W 270 9,9 C 16,7 C
26.06.2012 17:01 16,6 C 64 % 1019,4 hPa 0,0 l/m 8,6 km/h (2 Bft) W 270 9,8 C 16,6 C
26.06.2012 17:06 16,6 C 64 % 1019,5 hPa 0,0 l/m 18,4 km/h (3 Bft) NW 315 9,8 C 16,6 C
26.06.2012 17:11 16,5 C 64 % 1019,5 hPa 0,0 l/m 14,4 km/h (3 Bft) W 270 9,7 C 16,5 C
26.06.2012 17:16 16,4 C 64 % 1019,4 hPa 0,0 l/m 17,3 km/h (3 Bft) W 270 9,6 C 16,4 C
26.06.2012 17:21 16,5 C 64 % 1019,6 hPa 0,0 l/m 9,7 km/h (2 Bft) W 270 9,7 C 16,5 C
26.06.2012 17:26 16,5 C 64 % 1019,6 hPa 0,0 l/m 19,1 km/h (3 Bft) W-NW 292 9,7 C 16,5 C
26.06.2012 17:31 16,6 C 64 % 1019,7 hPa 0,0 l/m 20,5 km/h (4 Bft) W-NW 292 9,8 C 16,6 C
26.06.2012 17:36 16,6 C 64 % 1019,5 hPa 0,0 l/m 7,9 km/h (2 Bft) W-SW 247 9,8 C 16,6 C
26.06.2012 17:41 16,6 C 65 % 1019,5 hPa 0,0 l/m 13,7 km/h (3 Bft) W 270 10,0 C 16,6 C
26.06.2012 17:46 16,6 C 64 % 1019,5 hPa 0,0 l/m 20,9 km/h (4 Bft) N-NW 337 9,8 C 16,6 C
26.06.2012 17:51 16,6 C 64 % 1019,6 hPa 0,0 l/m 17,3 km/h (3 Bft) W 270 9,8 C 16,6 C
26.06.2012 17:56 16,7 C 64 % 1019,5 hPa 0,0 l/m 10,8 km/h (2 Bft) W-NW 292 9,9 C 16,7 C
26.06.2012 18:01 16,9 C 64 % 1019,4 hPa 0,0 l/m 22,7 km/h (4 Bft) W-NW 292 10,0 C 16,9 C
26.06.2012 18:06 16,9 C 63 % 1019,3 hPa 0,0 l/m 25,2 km/h (4 Bft) W 270 9,8 C 16,9 C
26.06.2012 18:11 17,1 C 63 % 1019,4 hPa 0,0 l/m 23,0 km/h (4 Bft) W 270 10,0 C 17,1 C
26.06.2012 18:16 17,0 C 63 % 1019,4 hPa 0,0 l/m 8,6 km/h (2 Bft) W 270 9,9 C 17,0 C
26.06.2012 18:21 17,1 C 63 % 1019,4 hPa 0,0 l/m 14,8 km/h (3 Bft) W-NW 292 10,0 C 17,1 C
26.06.2012 18:26 17,0 C 63 % 1019,4 hPa 0,0 l/m 15,8 km/h (3 Bft) W 270 9,9 C 17,0 C
26.06.2012 18:31 17,0 C 63 % 1019,4 hPa 0,0 l/m 27,4 km/h (4 Bft) W 270 9,9 C 17,0 C
26.06.2012 18:36 17,2 C 63 % 1019,4 hPa 0,0 l/m 22,3 km/h (4 Bft) W-NW 292 10,1 C 17,2 C
26.06.2012 18:41 17,1 C 62 % 1019,5 hPa 0,0 l/m 11,2 km/h (2 Bft) W-SW 247 9,8 C 17,1 C
26.06.2012 18:46 17,0 C 62 % 1019,6 hPa 0,0 l/m 15,8 km/h (3 Bft) W-NW 292 9,7 C 17,0 C
26.06.2012 18:51 17,1 C 63 % 1019,6 hPa 0,0 l/m 7,9 km/h (2 Bft) W 270 10,0 C 17,1 C
26.06.2012 18:56 17,4 C 62 % 1019,4 hPa 0,0 l/m 20,2 km/h (4 Bft) NW 315 10,0 C 17,4 C
26.06.2012 19:01 17,3 C 61 % 1019,3 hPa 0,0 l/m 19,4 km/h (3 Bft) N-NW 337 9,7 C 17,3 C
26.06.2012 19:06 17,3 C 61 % 1019,3 hPa 0,0 l/m 13,0 km/h (3 Bft) NW 315 9,7 C 17,3 C
26.06.2012 19:11 17,3 C 61 % 1019,5 hPa 0,0 l/m 18,0 km/h (3 Bft) W 270 9,7 C 17,3 C
26.06.2012 19:16 17,3 C 61 % 1019,5 hPa 0,0 l/m 13,0 km/h (3 Bft) W-NW 292 9,7 C 17,3 C
26.06.2012 19:21 17,3 C 60 % 1019,5 hPa 0,0 l/m 16,2 km/h (3 Bft) W 270 9,5 C 17,3 C
26.06.2012 19:26 17,3 C 60 % 1019,6 hPa 0,0 l/m 12,2 km/h (2 Bft) W-NW 292 9,5 C 17,3 C
26.06.2012 19:31 17,1 C 60 % 1019,6 hPa 0,0 l/m 20,5 km/h (4 Bft) W-NW 292 9,3 C 17,1 C
26.06.2012 19:36 16,9 C 60 % 1019,6 hPa 0,0 l/m 16,6 km/h (3 Bft) W-NW 292 9,1 C 16,9 C
26.06.2012 19:41 16,8 C 61 % 1019,6 hPa 0,0 l/m 15,5 km/h (3 Bft) W-NW 292 9,2 C 16,8 C
26.06.2012 19:46 16,6 C 62 % 1019,6 hPa 0,0 l/m 22,7 km/h (4 Bft) W 270 9,3 C 16,6 C
26.06.2012 19:51 16,6 C 62 % 1019,6 hPa 0,0 l/m 8,3 km/h (2 Bft) NW 315 9,3 C 16,6 C
26.06.2012 19:56 16,6 C 62 % 1019,7 hPa 0,0 l/m 7,6 km/h (2 Bft) W-NW 292 9,3 C 16,6 C
26.06.2012 20:01 16,5 C 63 % 1019,6 hPa 0,0 l/m 6,1 km/h (2 Bft) W 270 9,4 C 16,5 C
26.06.2012 20:06 16,4 C 63 % 1019,6 hPa 0,0 l/m 3,6 km/h (1 Bft) W-NW 292 9,3 C 16,4 C
26.06.2012 20:11 16,4 C 64 % 1019,6 hPa 0,0 l/m 12,6 km/h (3 Bft) W 270 9,6 C 16,4 C
26.06.2012 20:16 16,4 C 64 % 1019,5 hPa 0,0 l/m 15,1 km/h (3 Bft) W-NW 292 9,6 C 16,4 C
26.06.2012 20:21 16,4 C 64 % 1019,7 hPa 0,0 l/m 10,1 km/h (2 Bft) W-NW 292 9,6 C 16,4 C
26.06.2012 20:26 16,3 C 65 % 1019,7 hPa 0,0 l/m 4,7 km/h (1 Bft) NW 315 9,7 C 16,3 C
26.06.2012 20:31 16,3 C 65 % 1019,6 hPa 0,0 l/m 8,6 km/h (2 Bft) W-SW 247 9,7 C 16,3 C
26.06.2012 20:36 16,2 C 65 % 1019,6 hPa 0,0 l/m 14,8 km/h (3 Bft) W 270 9,6 C 16,2 C
26.06.2012 20:41 16,1 C 65 % 1019,6 hPa 0,0 l/m 16,9 km/h (3 Bft) W-NW 292 9,5 C 16,1 C
26.06.2012 20:46 15,9 C 65 % 1019,7 hPa 0,0 l/m 18,7 km/h (3 Bft) W-NW 292 9,3 C 15,9 C
26.06.2012 20:51 15,8 C 65 % 1019,6 hPa 0,0 l/m 18,7 km/h (3 Bft) NW 315 9,2 C 15,8 C
26.06.2012 20:56 15,6 C 66 % 1019,6 hPa 0,0 l/m 11,5 km/h (2 Bft) W-NW 292 9,3 C 15,6 C
26.06.2012 21:01 15,5 C 66 % 1019,7 hPa 0,0 l/m 5,0 km/h (1 Bft) W-NW 292 9,2 C 15,5 C
26.06.2012 21:06 15,4 C 66 % 1019,7 hPa 0,0 l/m 13,3 km/h (3 Bft) W-NW 292 9,1 C 15,4 C
26.06.2012 21:11 15,3 C 66 % 1019,7 hPa 0,0 l/m 6,5 km/h (2 Bft) W 270 9,0 C 15,3 C
26.06.2012 21:16 15,2 C 66 % 1019,8 hPa 0,0 l/m 11,2 km/h (2 Bft) W-SW 247 8,9 C 15,2 C
26.06.2012 21:21 15,1 C 67 % 1019,7 hPa 0,0 l/m 0,0 km/h (0 Bft) W-NW 292 9,0 C 15,1 C
26.06.2012 21:26 14,9 C 67 % 1019,6 hPa 0,0 l/m 7,9 km/h (2 Bft) NW 315 8,8 C 14,9 C
26.06.2012 21:31 14,9 C 68 % 1019,8 hPa 0,0 l/m 9,7 km/h (2 Bft) W-NW 292 9,0 C 14,9 C
26.06.2012 21:36 14,9 C 68 % 1019,8 hPa 0,0 l/m 4,3 km/h (1 Bft) NW 315 9,0 C 14,9 C
26.06.2012 21:41 14,7 C 68 % 1020,0 hPa 0,0 l/m 6,1 km/h (2 Bft) W 270 8,9 C 14,7 C
26.06.2012 21:46 14,6 C 68 % 1020,0 hPa 0,0 l/m 14,4 km/h (3 Bft) W-SW 247 8,8 C 14,6 C
26.06.2012 21:51 14,5 C 68 % 1020,0 hPa 0,0 l/m 9,7 km/h (2 Bft) W 270 8,7 C 14,5 C
26.06.2012 21:56 14,4 C 69 % 1019,9 hPa 0,0 l/m 6,5 km/h (2 Bft) W-NW 292 8,8 C 14,4 C
26.06.2012 22:01 14,3 C 69 % 1019,8 hPa 0,0 l/m 10,1 km/h (2 Bft) NW 315 8,7 C 14,3 C
26.06.2012 22:06 14,2 C 69 % 1020,0 hPa 0,0 l/m 15,5 km/h (3 Bft) W-NW 292 8,6 C 14,2 C
26.06.2012 22:11 14,1 C 70 % 1020,2 hPa 0,0 l/m 12,2 km/h (2 Bft) W 270 8,7 C 14,1 C
26.06.2012 22:16 14,1 C 70 % 1020,1 hPa 0,0 l/m 7,6 km/h (2 Bft) NW 315 8,7 C 14,1 C
26.06.2012 22:21 13,9 C 70 % 1020,0 hPa 0,0 l/m 6,1 km/h (2 Bft) W-NW 292 8,5 C 13,9 C
26.06.2012 22:26 13,9 C 71 % 1020,3 hPa 0,0 l/m 9,7 km/h (2 Bft) W 270 8,7 C 13,9 C
26.06.2012 22:31 13,8 C 71 % 1020,1 hPa 0,0 l/m 5,8 km/h (2 Bft) NW 315 8,6 C 13,8 C
26.06.2012 22:36 13,8 C 71 % 1020,1 hPa 0,0 l/m 6,1 km/h (2 Bft) W 270 8,6 C 13,8 C
26.06.2012 22:41 13,6 C 71 % 1020,2 hPa 0,0 l/m 5,4 km/h (1 Bft) W-NW 292 8,4 C 13,6 C
26.06.2012 22:46 13,6 C 72 % 1020,1 hPa 0,0 l/m 5,0 km/h (1 Bft) W 270 8,6 C 13,6 C
26.06.2012 22:51 13,5 C 72 % 1020,0 hPa 0,0 l/m 10,8 km/h (2 Bft) W-NW 292 8,6 C 13,5 C
26.06.2012 22:56 13,4 C 73 % 1020,0 hPa 0,0 l/m 7,6 km/h (2 Bft) W-NW 292 8,7 C 13,4 C
26.06.2012 23:01 13,4 C 73 % 1019,9 hPa 0,0 l/m 12,6 km/h (3 Bft) W-NW 292 8,7 C 13,4 C
26.06.2012 23:06 13,3 C 73 % 1019,9 hPa 0,0 l/m 7,6 km/h (2 Bft) W 270 8,6 C 13,3 C
26.06.2012 23:11 13,3 C 73 % 1020,0 hPa 0,0 l/m 8,6 km/h (2 Bft) W 270 8,6 C 13,3 C
26.06.2012 23:16 13,2 C 73 % 1020,0 hPa 0,0 l/m 9,4 km/h (2 Bft) W-NW 292 8,5 C 13,2 C
26.06.2012 23:21 13,1 C 74 % 1020,1 hPa 0,0 l/m 6,5 km/h (2 Bft) W-NW 292 8,6 C 13,1 C
26.06.2012 23:26 13,1 C 74 % 1019,9 hPa 0,0 l/m 5,8 km/h (2 Bft) W 270 8,6 C 13,1 C
26.06.2012 23:31 13,0 C 74 % 1019,9 hPa 0,0 l/m 2,9 km/h (1 Bft) SW 225 8,5 C 13,0 C
26.06.2012 23:36 12,9 C 74 % 1019,9 hPa 0,0 l/m 4,0 km/h (1 Bft) W-SW 247 8,4 C 12,9 C
26.06.2012 23:41 12,9 C 74 % 1019,8 hPa 0,0 l/m 4,3 km/h (1 Bft) W-NW 292 8,4 C 12,9 C
26.06.2012 23:46 12,9 C 75 % 1019,8 hPa 0,0 l/m 2,5 km/h (1 Bft) W-NW 292 8,6 C 12,9 C
26.06.2012 23:51 12,8 C 75 % 1020,0 hPa 0,0 l/m 0,0 km/h (0 Bft) W 270 8,5 C 12,8 C
26.06.2012 23:56 12,8 C 75 % 1020,0 hPa 0,0 l/m 2,5 km/h (1 Bft) W 270 8,5 C 12,8 C
_ Min-Zeit 23:51 19:21 00:01 - 21:21 - - 23:36 23:51
Minimum _ 12,8 C 60 % 1013,3 hPa - 0,0 km/h (0 Bft) - - 8,4 C 12,8 C
_ Max-Zeit 18:56 00:01 22:26 00:01 11:56 - - 12:26 18:56
Maximum _ 17,4 C 78 % 1020,3 hPa 0,0 l/m 33,5 km/h
W-NW (5 Bft)
- - 10,6 C 17,4 C
Durchschnitt _ 14,8 C 71 % 1017,5 hPa #0,0 l/m 14,1 km/h (3 Bft) W-NW - 9,5 C 14,8 C
(c) by David Heller